北斗 3 (BEIDOU 3)

导读

BEIDOU-2 G1 是中国北斗二代卫星导航系统中的地球静止轨道卫星,于2010年发射。该卫星主要用于提供高精度定位、导航和授时服务,是中国构建自主卫星导航系统的重要组成部分。G1 卫星的发射增强了北斗系统在亚太地区的覆盖能力,提升了系统的稳定性和可靠性,为交通运输、通信、测绘等多个领域提供了关键支持。

基本信息
目录编号:
36287
目录名称:
BEIDOU 3
国际标识:
2010-001A
轨道中心:
EARTH
卫星名称:
北斗 3
卫星全名:
北斗 3 (BEIDOU 3)
卫星状态:
在轨 (已飞行5993 天)
发射日期:
2010-01-16 UTC
国别 :
中国 (CN)
星等 :
--
轨道信息
数据来源 国际轨道数据 AOE轨道数据
星历时间 2026-06-14T06:22:38+0800
11小时前
查看轨道信息
2026-06-14T00:00:00+0800
17小时前
查看轨道信息
半长轴 42164.784km 42164.953km
偏心率 0.0002303 0.0002409
轨道倾角 4.285° 4.284°
近地点辐角 299.234° 302.316°
升交点赤经 60.415° 60.423°
平近点角 18.729° 279.718°
近地点 35776.936km 35776.658km
远地点 35796.358km 35796.974km
周期 1436.100分钟 1436.108分钟
每日圈数 1.002716 1.00271
详细信息
卫星平台:
东方红三号
平衡模式:
三轴稳定
制造商(研发单位):
中国空间技术研究院
制造商所在国:
中国
使用方式:
暂无
卫星简介
北斗卫星导航系统是中国着眼于国家安全和经济社会发展需要,自主建设运行的全球卫星导航系统,是为全球用户提供全天候、全天时、高精度的定位、导航和授时服务的国家重要时空基础设施。该卫星仍在工作。
2D轨道图
3D轨道图
轨道高度分析图
轨道倾角分析图
轨道综合分析图
查看轨道综合分析图